Location: Arrodets-la-Barthe
(43.0306°N, 0.2829°E)
Time: 13:17:27
(UTC+00:00)

ESTCUBE 1 - Pass Details

Date: 02 April 2023
Orbit: 640 x 654 km, 97.9° (Epoch: 29 May)

Event Time Altitude Azimuth Distance (km) Brightness Sun altitude
Exits shadow 21:20:45 23° 17° (NNE) 1,414 ? -29.6°
Drops below altitude 10° 21:22:39 10° 3° (N) 2,075 ? -29.8°
Sets 21:24:59 0° 356° (N) 2,990 ? -30.2°
